Погода в Пунта-Горда

Белиз     16°05′53″N   88°48′37″W
темп.,
°C
ветер,
м/с
пор.,
м/с
влажн.,
%
обл.,
%
осадки,
мм/ч
давл.,
гПа
погр.,
м
23 апреля, пт
пт2300:00+26всв567936 1.8 1014700
03:00+26в347653 3.1 1013706
06:00+27всв457492 4.3 1013759
09:00+27всв357456 0.3 1014733
12:00+28всв65755 0.4 1013600
15:00+28всв887214 0.0 1010719
18:00+28всв99725 0.0 10101002
21:00+28всв797498 0.1 10121097
24 апреля, сб
сб2400:00+27всв787881 0.4 1011916
03:00+27ссв348342 0.4 1009549
06:00+25сз229033 0.5 1010235
09:00+27с018166 0.0 1011346
12:00+28всв447396 0.0 1010398
15:00+29всв767091 0.0 1007377
18:00+28всв7876100 0.0 1008530
21:00+28всв787666 0.0 1010707
25 апреля, вс
вс2500:00+27ссв4483100 0.0 1010469
03:00+25ссз3390100 0.1 1009219
06:00+26зсз2186100 0.1 1011178
09:00+27ссв017779 0.0 1012340
12:00+29в437097 0.0 1011469
15:00+28всв7774100 0.0 1009363
18:00+28всв9107740 0.0 1010505
21:00+27св898216 0.0 1012714
26 апреля, пн
пн2600:00+27св5678100 0.1 1011829
03:00+26ссв2381100 0.3 1010348
06:00+27св337513 0.3 1012719
09:00+28св237195 0.1 1013576
12:00+29в55680 0.1 1012655
15:00+28всв89720 0.0 1010617
18:00+28всв910690 0.0 1011839
21:00+28всв897222 0.0 10131059
27 апреля, вт
вт2700:00+27в577797 0.1 1012913
03:00+27св4582100 0.4 1011652
06:00+27св358198 0.9 1012582
09:00+28св447147 0.3 1013839
12:00+28всв55760 0.4 1012602
15:00+28всв98720 0.0 1009664
18:00+28всв910769 0.0 10101131
21:00+28всв91077100 0.3 10121043